This is the latest recevied weather packets stored in our database for station/object SP1BMW-13. If no packets are shown the sender has not sent any weather packets the latest 10 day(s).
| Time | Temp. | Humidity | Pressure | Rain* | Wind** | Luminosity | Snow |
|---|---|---|---|---|---|---|---|
| 1788012032 | 25.56° C | 40% | 1009.2 hPa | 0 mm | 2.24 m/s, 169° | 401 W/m² | - |
| 1788011973 | 25.56° C | 40% | 1009.4 hPa | 0 mm | 1.34 m/s, 139° | 562 W/m² | - |
| 1788011913 | 25.56° C | 41% | 1009.4 hPa | 0 mm | 1.34 m/s, 250° | 567 W/m² | - |
| 1788011853 | 25.56° C | 41% | 1009.2 hPa | 0 mm | 0.45 m/s, 295° | 575 W/m² | - |
| 1788011792 | 25° C | 41% | 1009.1 hPa | 0 mm | 0.89 m/s, 146° | 553 W/m² | - |
| 1788011733 | 25° C | 42% | 1009.2 hPa | 0 mm | 0.89 m/s, 78° | 554 W/m² | - |
| 1788011673 | 25° C | 42% | 1009.2 hPa | 0 mm | 0.45 m/s, 273° | 547 W/m² | - |
| 1788011612 | 25° C | 42% | 1009.3 hPa | 0 mm | 2.68 m/s, 250° | 569 W/m² | - |
| 1788011553 | 25.56° C | 43% | 1009.2 hPa | 0 mm | 0.89 m/s, 99° | 187 W/m² | - |
| 1788011493 | 25.56° C | 42% | 1009.2 hPa | 0 mm | 0.89 m/s, 297° | 184 W/m² | - |
| 1788011432 | 25.56° C | 41% | 1009.2 hPa | 0 mm | 2.68 m/s, 108° | 184 W/m² | - |
| 1788011372 | 25.56° C | 42% | 1009.1 hPa | 0 mm | 0.45 m/s, 8° | 188 W/m² | - |
| 1788011312 | 25.56° C | 42% | 1009 hPa | 0 mm | 1.34 m/s, 86° | 284 W/m² | - |
| 1788011252 | 25.56° C | 41% | 1009.2 hPa | 0 mm | 0.45 m/s, 100° | 209 W/m² | - |
| 1788011192 | 25.56° C | 40% | 1009.2 hPa | 0 mm | 1.79 m/s, 201° | 269 W/m² | - |
| 1788011132 | 25.56° C | 42% | 1009.2 hPa | 0 mm | 1.34 m/s, 36° | 271 W/m² | - |
| 1788011072 | 25.56° C | 42% | 1009.2 hPa | 0 mm | 0.45 m/s, 266° | 564 W/m² | - |
| 1788011013 | 25° C | 42% | 1009.1 hPa | 0 mm | 2.24 m/s, 146° | 580 W/m² | - |
| 1788010952 | 25° C | 41% | 1009.2 hPa | 0 mm | 0.89 m/s, 42° | 590 W/m² | - |
| 1788010892 | 25° C | 43% | 1009.3 hPa | 0 mm | 0.89 m/s, 267° | 604 W/m² | - |
| 1788010832 | 25° C | 42% | 1009.3 hPa | 0 mm | 0.89 m/s, 156° | 534 W/m² | - |
| 1788010772 | 25° C | 44% | 1009.4 hPa | 0 mm | 0 m/s | 218 W/m² | - |
| 1788010714 | 25° C | 43% | 1009.3 hPa | 0 mm | 1.79 m/s, 92° | 193 W/m² | - |
| 1788010652 | 25° C | 42% | 1009.1 hPa | 0 mm | 1.34 m/s, 347° | 263 W/m² | - |
| 1788010592 | 25° C | 43% | 1009.2 hPa | 0 mm | 1.34 m/s, 135° | 404 W/m² | - |
* Rain latest hour (hover to see other rain measurements)
** Current wind speed in m/s (hover to see current wind gust speed)